This is the latest recevied weather packets stored in our database for station/object N4XWC. If no packets are shown the sender has not sent any weather packets the latest 1 day(s).
| Time | Temp. | Humidity | Pressure | Rain* | Wind** | Luminosity | Snow |
|---|---|---|---|---|---|---|---|
| 1777994684 | 20.56° C | 67% | 1014.2 hPa | 0 mm | 3.13 m/s, 247° | - | - |
| 1777994534 | 20.56° C | 66% | 1014.2 hPa | 0 mm | 0 m/s | - | - |
| 1777994385 | 20.56° C | 68% | 1014.2 hPa | 0 mm | 0.45 m/s, 304° | - | - |
| 1777994083 | 20.56° C | 69% | 1014.1 hPa | 0 mm | 0.89 m/s, 178° | - | - |
| 1777993934 | 20.56° C | 69% | 1014.1 hPa | 0 mm | 1.34 m/s, 250° | - | - |
| 1777993784 | 20.56° C | 69% | 1014.1 hPa | 0 mm | 0.45 m/s, 230° | - | - |
| 1777993484 | 20.56° C | 72% | 1014.1 hPa | 0 mm | 0.89 m/s, 232° | - | - |
| 1777993335 | 20° C | 72% | 1014.1 hPa | 0 mm | 1.34 m/s, 212° | - | - |
| 1777993184 | 20° C | 70% | 1014.2 hPa | 0 mm | 0 m/s | - | - |
| 1777992885 | 20° C | 70% | 1014.2 hPa | 0 mm | 0.45 m/s, 234° | - | - |
| 1777992733 | 20° C | 70% | 1014.2 hPa | 0 mm | 0 m/s | - | - |
| 1777992583 | 20° C | 72% | 1014.2 hPa | 0 mm | 0.45 m/s, 205° | - | - |
| 1777992284 | 20° C | 71% | 1014.2 hPa | 0 mm | 0 m/s | - | - |
| 1777992134 | 20° C | 71% | 1014.2 hPa | 0 mm | 0.45 m/s, 271° | - | - |
| 1777991983 | 19.44° C | 73% | 1014.2 hPa | 0 mm | 1.34 m/s, 199° | - | - |
| 1777991683 | 19.44° C | 72% | 1014.2 hPa | 0 mm | 0.45 m/s, 185° | - | - |
| 1777991534 | 19.44° C | 74% | 1014.2 hPa | 0 mm | 2.24 m/s, 243° | - | - |
| 1777991384 | 19.44° C | 74% | 1014.4 hPa | 0 mm | 0.45 m/s, 206° | - | - |
| 1777991083 | 19.44° C | 73% | 1014.4 hPa | 0 mm | 0.45 m/s, 205° | - | - |
| 1777990934 | 19.44° C | 74% | 1014.4 hPa | 0 mm | 1.34 m/s, 213° | - | - |
| 1777990784 | 19.44° C | 75% | 1014.4 hPa | 0 mm | 0 m/s | - | - |
| 1777990484 | 18.89° C | 75% | 1014.1 hPa | 0 mm | 0 m/s | - | - |
| 1777990335 | 18.89° C | 75% | 1014.1 hPa | 0 mm | 0.45 m/s, 258° | - | - |
| 1777990184 | 18.89° C | 75% | 1014.1 hPa | 0 mm | 0 m/s | - | - |
| 1777989884 | 18.89° C | 75% | 1014.1 hPa | 0 mm | 0 m/s | - | - |
* Rain latest hour (hover to see other rain measurements)
** Current wind speed in m/s (hover to see current wind gust speed)